| time (UTC) | temp C | wind direction | speed KPH | gust KPH | rain 1hr cm | rain 24hr cm | rain mn cm | humidity % | barometer mb |
| 20260503013024 | 17 | 69 | 4.8 | 9.7 | 0.00 | 0.00 | 0.00 | 36 | 1012.2 |
| 20260503011514 | 17 | 46 | 4.8 | 11.3 | 0.00 | 0.00 | 0.00 | 36 | 1012.2 |
| 20260503010013 | 17 | 5 | 3.2 | 9.7 | 0.00 | 0.00 | 0.00 | 35 | 1012.3 |
| 20260503004514 | 18 | 82 | 8.0 | 12.9 | 0.00 | 0.00 | 0.00 | 35 | 1012.4 |
| 20260503003013 | 18 | 294 | 0.0 | 6.4 | 0.00 | 0.00 | 0.00 | 34 | 1012.5 |
| 20260503001512 | 18 | 339 | 6.4 | 11.3 | 0.00 | 0.00 | 0.00 | 33 | 1012.5 |
| 20260503000011 | 18 | 53 | 4.8 | 14.5 | 0.00 | 0.00 | 0.00 | 34 | 1012.5 |
| 20260502234511 | 18 | 346 | 3.2 | 8.0 | 0.00 | 0.00 | 0.00 | 34 | 1012.6 |
| 20260502233011 | 18 | 49 | 4.8 | 14.5 | 0.00 | 0.00 | 0.00 | 34 | 1012.9 |
| 20260502231517 | 18 | 36 | 3.2 | 16.1 | 0.00 | 0.00 | 0.00 | 34 | 1013.1 |
| 20260502230010 | 18 | 348 | 4.8 | 14.5 | 0.00 | 0.00 | 0.00 | 34 | 1013.2 |
| 20260502224511 | 18 | 323 | 1.6 | 12.9 | 0.00 | 0.00 | 0.00 | 33 | 1013.4 |
| 20260502223010 | 18 | 5 | 6.4 | 14.5 | 0.00 | 0.00 | 0.00 | 33 | 1013.5 |
| 20260502221508 | 18 | 304 | 4.8 | 16.1 | 0.00 | 0.00 | 0.00 | 34 | 1013.8 |
| 20260502220009 | 18 | 336 | 9.7 | 14.5 | 0.00 | 0.00 | 0.00 | 34 | 1013.9 |
| 20260502214506 | 18 | 273 | 4.8 | 12.9 | 0.00 | 0.00 | 0.00 | 34 | 1014.1 |
| 20260502213004 | 18 | 279 | 9.7 | 17.7 | 0.00 | 0.00 | 0.00 | 35 | 1014.3 |
| 20260502211502 | 18 | 78 | 3.2 | 20.9 | 0.00 | 0.00 | 0.00 | 35 | 1014.3 |
| 20260502210001 | 18 | 11 | 8.0 | 16.1 | 0.00 | 0.00 | 0.00 | 36 | 1014.5 |
| 20260502204600 | 17 | 317 | 6.4 | 12.9 | 0.00 | 0.00 | 0.00 | 36 | 1014.7 |
| 20260502203059 | 17 | 355 | 11.3 | 19.3 | 0.00 | 0.00 | 0.00 | 36 | 1014.8 |
| 20260502201605 | 17 | 302 | 11.3 | 25.7 | 0.00 | 0.00 | 0.00 | 37 | 1015.0 |
| 20260502200058 | 17 | 355 | 6.4 | 20.9 | 0.00 | 0.00 | 0.00 | 36 | 1015.1 |
| 20260502194614 | 17 | 24 | 8.0 | 22.5 | 0.00 | 0.00 | 0.00 | 35 | 1015.3 |
| 20260502193107 | 17 | 349 | 11.3 | 19.3 | 0.00 | 0.00 | 0.00 | 36 | 1015.4 |
| 20260502191601 | 17 | 336 | 11.3 | 25.7 | 0.00 | 0.00 | 0.00 | 38 | 1015.6 |
| 20260502190054 | 17 | 55 | 4.8 | 19.3 | 0.00 | 0.00 | 0.00 | 37 | 1015.6 |
| 20260502184602 | 16 | 29 | 12.9 | 24.1 | 0.00 | 0.00 | 0.00 | 39 | 1015.8 |
| 20260502183052 | 17 | 100 | 14.5 | 22.5 | 0.00 | 0.00 | 0.00 | 38 | 1015.8 |
| 20260502181552 | 17 | 16 | 11.3 | 24.1 | 0.00 | 0.00 | 0.00 | 38 | 1015.9 |
| 20260502163045 | 16 | 355 | 6.4 | 19.3 | 0.00 | 0.00 | 0.00 | 43 | 1016.0 |
| 20260502161557 | 16 | 15 | 11.3 | 19.3 | 0.00 | 0.00 | 0.00 | 43 | 1016.0 |
| 20260502151530 | 14 | 22 | 9.7 | 16.1 | 0.00 | 0.00 | 0.00 | 45 | 1015.8 |
| 20260502123006 | 7 | 9 | 4.8 | 14.5 | 0.00 | 0.00 | 0.00 | 60 | 1015.1 |
| 20260502121504 | 8 | 13 | 11.3 | 20.9 | 0.00 | 0.00 | 0.00 | 57 | 1015.0 |
| 20260502114601 | 8 | 40 | 8.0 | 19.3 | 0.00 | 0.00 | 0.00 | 55 | 1014.7 |
| 20260502113059 | 9 | 76 | 12.9 | 24.1 | 0.00 | 0.00 | 0.00 | 54 | 1014.3 |
| 20260502111557 | 10 | 67 | 12.9 | 25.7 | 0.00 | 0.00 | 0.00 | 52 | 1014.2 |
| 20260502110056 | 10 | 13 | 6.4 | 25.7 | 0.00 | 0.00 | 0.00 | 51 | 1014.1 |
| 20260502104555 | 9 | 37 | 9.7 | 20.9 | 0.00 | 0.00 | 0.00 | 52 | 1013.7 |
| 20260502103051 | 10 | 34 | 9.7 | 22.5 | 0.00 | 0.00 | 0.00 | 49 | 1013.6 |
| 20260502101556 | 10 | 46 | 11.3 | 19.3 | 0.00 | 0.00 | 0.00 | 49 | 1013.5 |
| 20260502071529 | 6 | 301 | 3.2 | 4.8 | 0.00 | 0.00 | 0.00 | 52 | 1012.2 |
| 20260502070026 | 6 | 304 | 3.2 | 6.4 | 0.00 | 0.00 | 0.00 | 51 | 1012.2 |
| 20260502064520 | 7 | 304 | 1.6 | 3.2 | 0.00 | 0.00 | 0.00 | 49 | 1012.2 |
| 20260502063019 | 7 | 302 | 1.6 | 6.4 | 0.00 | 0.00 | 0.00 | 48 | 1012.2 |
| 20260502061514 | 8 | 304 | 4.8 | 8.0 | 0.00 | 0.00 | 0.00 | 43 | 1012.2 |
| 20260502060010 | 10 | 317 | 3.2 | 6.4 | 0.00 | 0.00 | 0.00 | 39 | 1012.0 |
| 20260502054520 | 11 | 331 | 0.0 | 6.4 | 0.00 | 0.00 | 0.00 | 38 | 1012.0 |
| 20260502053010 | 10 | 310 | 4.8 | 6.4 | 0.00 | 0.00 | 0.00 | 39 | 1012.0 |
| 20260502051518 | 11 | 302 | 3.2 | 8.0 | 0.00 | 0.00 | 0.00 | 38 | 1011.9 |
| 20260502050027 | 12 | 306 | 1.6 | 8.0 | 0.00 | 0.00 | 0.00 | 36 | 1011.9 |
| 20260502044508 | 12 | 317 | 0.0 | 3.2 | 0.00 | 0.00 | 0.00 | 33 | 1011.7 |
| 20260502043008 | 12 | 90 | 1.6 | 4.8 | 0.00 | 0.00 | 0.00 | 36 | 1011.6 |
| 20260502041508 | 13 | 310 | 1.6 | 3.2 | 0.00 | 0.00 | 0.00 | 35 | 1011.7 |
| 20260502040007 | 12 | 310 | 4.8 | 6.4 | 0.00 | 0.00 | 0.00 | 37 | 1011.8 |
| 20260502034511 | 15 | 303 | 1.6 | 6.4 | 0.00 | 0.00 | 0.00 | 31 | 1011.7 |
| 20260502033015 | 16 | 101 | 1.6 | 9.7 | 0.00 | 0.00 | 0.00 | 28 | 1011.4 |
| 20260502031506 | 16 | 33 | 0.0 | 3.2 | 0.00 | 0.00 | 0.00 | 32 | 1011.2 |
| 20260502030015 | 17 | 33 | 1.6 | 3.2 | 0.00 | 0.00 | 0.00 | 27 | 1011.1 |
| 20260502024505 | 18 | 33 | 1.6 | 3.2 | 0.00 | 0.00 | 0.00 | 25 | 1010.9 |
| 20260502023005 | 18 | 33 | 0.0 | 0.0 | 0.00 | 0.00 | 0.00 | 25 | 1010.8 |
| 20260502021504 | 20 | 33 | 0.0 | 0.0 | 0.00 | 0.00 | 0.00 | 22 | 1010.7 |
| 20260502020004 | 21 | 33 | 0.0 | 0.0 | 0.00 | 0.00 | 0.00 | 21 | 1010.8 |
| 20260502014503 | 22 | 33 | 1.6 | 4.8 | 0.00 | 0.00 | 0.00 | 20 | 1010.8 |